Simultaneous Nadir Overpasses (SNOs) Predictions

Prediction of SNOs between GOES-15 and METOP-A Satellite Orbit:

Table of predicted SNOs for the next 14.0 days since TLE Epoch: 11/30/2012
Index Date Time (GOES-15) GOES-15 Lat,Lon METOP-A Lat,Lon Distance(km) Time Diff (sec)
1 11/30/2012 18:28:45 -0.19,-135.20 -0.21,-135.10 11.38 80
2 12/03/2012 06:27:05 0.18,-135.23 0.28,-134.70 60.19 80
3 12/04/2012 18:48:36 -0.15,-135.30 0.72,-139.27 451.45 80
4 12/05/2012 18:25:16 -0.17,-135.33 -0.43,-134.28 120.23 80
5 12/07/2012 06:46:55 0.14,-135.33 -0.62,-138.87 402.76 80
6 12/08/2012 06:23:34 0.16,-135.35 0.49,-133.87 168.19 80
7 12/09/2012 18:45:04 -0.14,-135.40 0.56,-138.42 344.66 80
8 12/10/2012 18:21:43 -0.15,-135.42 -0.57,-133.43 226.30 80
9 12/12/2012 06:43:20 0.13,-135.40 -0.47,-138.01 297.51 80
10 12/13/2012 06:20:00 0.14,-135.41 0.69,-133.02 272.74 80




NCC Satellite Simultaneous Nadir Overpasses (SNOs) Prediction Service
